DIAMANT DEB, 2684

Orbit data source: Space-Track

DIAMANT DEB, 2684 is space debris in LEO originally from a launch on Wed, 15 Feb 1967 UTC launched from the Hamma Guira Space Track Range (HGSTR). Debris objects in space refer to the collection of defunct objects orbiting the Earth. Examples of debris include non-operational satellites, rocket bodies, and fragments generated from explosions, collisions, or faulty payload assembly.

Loading next visibility...
Identifier
2684, 1967-014C
Orbit
LEO
Country
Flag of FRFR
Related business
Manufacturer
Unknown
Mission
Spacecraft
Bus & Motor
Unknown
Mass
Unknown
Launch date (UTC)
1967-02-15 (59 years ago)
Launch vehicle
Unknown
Launch site
Hamma Guira Space Track Range (HGSTR)
Object type
Payload
Rocket body
Debris
Shape & HBR
Unknown shape, 0.1 m
Radar Cross Section
Small (<0.1 m²)

Expand to show TLE details & history
Last TLE update: 2 days ago

TLE from 2 days ago
0 DIAMANT DEB
1 02684U 67014C   26033.78975063  .00005067  00000-0  12007-2 0  9997
2 02684  39.9593 323.0095 0443844 303.7472  52.1745 14.08052379922023
Epoch: 2026-02-02T18:57Z
TLE epoch observation values (Epoch: 2026-02-02T18:57:14.454Z)
Latitude
-0°
Longitude
-94.28072°
Altitude
677.639 km
Speed
7.616 km/s
True Right ascension
21h 32m 02s
True Declination
0° 00' 00"
Sunlit
Object was in daylight at epoch
Visualization orbit readout
Latitude
Unknown
Longitude
Unknown
Altitude
Unknown
Speed
Unknown
Apparent Right ascension
Unknown
Apparent Declination
Unknown
Sunlit
N/A
Visualization observer readout
Local Sidereal Time
19:04:57
Azimuth
Unknown
Elevation
Unknown
Doppler factor
Unknown
Orbital elements
Apogee altitude
1,190.006 km
Perigee altitude
546.742 km
Semi-major axis
7,246.511 km
Eccentricity
0.04438
Inclination
39.9593°
RAAN
323.0095°
Arg. of periapsis
303.7472°
True anomaly
56.32954°
Mean anomaly
52.1745°
Eccentric anomaly
54.23805°
Mean motion
3.51844 °/min
Orbital period
102.32 mins
BSTAR
0.0012007
Loading maneuver chart data...
Computing Atmospheric mass density...
Loading historical data...
Loading historical data...
Loading historical data...
Loading historical data...
Loading historical data...
Loading historical data...
Loading historical data...

Documentation

Showing up to 5 results
|